sat.trackr.live / text

‹ back to catalog

STARLINK-11717 [DTC]

NORAD 64126 · 2025-111D

PAYLOAD ACTIVE UNKNOWN

§ Identity

Operator
Country
US
Launch date
2025-05-24
Launch site
AFETR
Launch vehicle
Mass (kg)
RCS (m²)

Purposes: comms

External: N2YO · Heavens-Above · Gunter

§ Orbital elements

Epoch: 2026-05-24T23:12:24.467904Z

Period
91.67 min
Inclination
42.9976°
Eccentricity
0.0000951
Mean motion
15.70872233 rev/d
Perigee alt
355.8 km
Apogee alt
357.0 km
Semi-major
6,734.5 km
B*
1.2137e-3
RAAN
234.2465°
Arg perigee
45.9452°
Mean anomaly
314.1494°
Rev number
5,858

§ Raw data

STARLINK-11717 [DTC]1 64126U 25111D   26144.96694986  .00158497  00000+0  12137-2 0  99922 64126  42.9976 234.2465 0000951  45.9452 314.1494 15.70872233 58588

JSON: /api/v1/satellites/64126 · /tle

For live sub-satellite position, see the globe view (requires WebGL).

§ Visibility from observer

Set your observer location to see the next 7 days of passes ≥ 10°. The values pass through the URL so the page stays shareable.

No JS? Fill the form by hand. The geolocation button needs JavaScript.